When you browse on this site, cookies collect data to enhance your experience and personalize the content and advertising you see.
Visit our Privacy Policy to learn more. By continuing to use the site, you agree to this use of cookies and data.
  • In Hungary
  • List of Countries
  • For 7 days
  • Water Temperature
  • Weather Map
  • News
  • Weather Widgets
  • user-avatar
    Login

    Hourly Weather Rosiny

    Today, 9 December, Monday

    Time Temperature Precipitation Wind Pressure Humidity
    00:00 +6°C° 0 mm 5 mps 742 mmHg 81%
    01:00 +5°C° 0 mm 5 mps 742 mmHg 81%
    02:00 +5°C° 0 mm 5 mps 742 mmHg 81%
    03:00 +5°C° 0 mm 5 mps 742 mmHg 81%
    04:00 +5°C° 0 mm 5 mps 742 mmHg 81%
    05:00 +3°C° 0 mm 5 mps 742 mmHg 82%
    06:00 +3°C° 0 mm 5 mps 743 mmHg 82%
    07:00 +3°C° 0 mm 5 mps 743 mmHg 83%
    08:00 +3°C° 0 mm 6 mps 743 mmHg 81%
    09:00 +4°C° 0 mm 6 mps 744 mmHg 79%
    10:00 +4°C° 0 mm 6 mps 744 mmHg 77%
    11:00 +4°C° 0 mm 6 mps 744 mmHg 74%
    12:00 +5°C° 0 mm 6 mps 744 mmHg 71%
    13:00 +5°C° 0 mm 6 mps 744 mmHg 68%
    14:00 +6°C° 0 mm 5 mps 744 mmHg 72%
    15:00 +5°C° 0 mm 5 mps 743 mmHg 76%
    16:00 +5°C° 0 mm 4 mps 743 mmHg 79%
    17:00 +5°C° 0 mm 5 mps 744 mmHg 81%
    18:00 +3°C° 0 mm 5 mps 744 mmHg 83%
    19:00 +3°C° 0 mm 5 mps 745 mmHg 84%
    20:00 +3°C° 0.2 mm 5 mps 745 mmHg 85%
    21:00 +3°C° 0.2 mm 5 mps 746 mmHg 86%
    22:00 +3°C° 0.2 mm 5 mps 746 mmHg 87%
    23:00 +3°C° 0 mm 6 mps 747 mmHg 82%

    Tomorrow, 10 December, Tuesday

    Time Temperature Precipitation Wind Pressure Humidity
    00:00 +2°C° 0 mm 6 mps 747 mmHg 76%
    01:00 +1°C° 0 mm 6 mps 748 mmHg 71%
    02:00 0°C° 0 mm 7 mps 748 mmHg 78%
    03:00 0°C° 0 mm 7 mps 749 mmHg 86%
    04:00 -1°C° 0 mm 8 mps 749 mmHg 93%
    05:00 -1°C° 0.1 mm 8 mps 750 mmHg 92%
    06:00 -1°C° 0.1 mm 9 mps 751 mmHg 90%
    07:00 -1°C° 0.1 mm 9 mps 752 mmHg 88%
    08:00 0°C° 0.1 mm 8 mps 753 mmHg 84%
    09:00 0°C° 0.1 mm 8 mps 754 mmHg 80%
    10:00 0°C° 0.1 mm 8 mps 755 mmHg 76%
    11:00 0°C° 0 mm 7 mps 756 mmHg 74%
    12:00 0°C° 0 mm 7 mps 757 mmHg 72%
    13:00 +1°C° 0 mm 6 mps 758 mmHg 69%
    14:00 0°C° 0 mm 5 mps 759 mmHg 70%
    15:00 -1°C° 0 mm 4 mps 760 mmHg 71%
    16:00 0°C° 0 mm 3 mps 760 mmHg 71%
    17:00 -1°C° 0 mm 3 mps 760 mmHg 71%
    18:00 -1°C° 0 mm 2 mps 761 mmHg 71%
    19:00 -2°C° 0 mm 2 mps 761 mmHg 71%
    20:00 -2°C° 0 mm 2 mps 761 mmHg 71%
    21:00 -2°C° 0 mm 2 mps 761 mmHg 70%
    22:00 -2°C° 0 mm 2 mps 761 mmHg 69%
    23:00 -2°C° 0 mm 2 mps 760 mmHg 70%

    Day after tomorrow, 11 December, Wednesday

    Time Temperature Precipitation Wind Pressure Humidity
    00:00 -2°C° 0 mm 3 mps 760 mmHg 71%
    01:00 -2°C° 0 mm 3 mps 760 mmHg 72%
    02:00 -3°C° 0 mm 4 mps 759 mmHg 72%
    03:00 -3°C° 0 mm 4 mps 758 mmHg 72%
    04:00 -2°C° 0 mm 5 mps 757 mmHg 72%
    05:00 -2°C° 0 mm 5 mps 757 mmHg 73%
    06:00 -2°C° 0 mm 5 mps 756 mmHg 74%
    07:00 -3°C° 0 mm 6 mps 756 mmHg 75%
    08:00 -2°C° 0 mm 6 mps 755 mmHg 72%
    09:00 -2°C° 0 mm 6 mps 755 mmHg 69%
    10:00 -2°C° 0 mm 6 mps 755 mmHg 66%
    11:00 -1°C° 0 mm 6 mps 754 mmHg 65%
    12:00 -1°C° 0 mm 6 mps 753 mmHg 63%
    13:00 0°C° 0 mm 5 mps 753 mmHg 61%
    14:00 0°C° 0.1 mm 5 mps 752 mmHg 63%
    15:00 0°C° 0.1 mm 5 mps 751 mmHg 65%
    16:00 0°C° 0.1 mm 4 mps 750 mmHg 67%
    17:00 0°C° 0.1 mm 5 mps 750 mmHg 66%
    18:00 0°C° 0.1 mm 5 mps 749 mmHg 66%
    19:00 -1°C° 0.1 mm 5 mps 749 mmHg 65%
    20:00 -1°C° 0.2 mm 5 mps 748 mmHg 64%
    21:00 -1°C° 0.2 mm 5 mps 748 mmHg 63%
    22:00 -1°C° 0.2 mm 5 mps 747 mmHg 61%
    23:00 -1°C° 0.5 mm 5 mps 747 mmHg 73%

    12 December, Thursday

    Time Temperature Precipitation Wind Pressure Humidity
    00:00 -1°C° 0.5 mm 5 mps 746 mmHg 85%
    01:00 -2°C° 0.5 mm 6 mps 746 mmHg 96%
    02:00 0°C° 0.3 mm 5 mps 746 mmHg 96%
    03:00 0°C° 0.3 mm 5 mps 745 mmHg 95%
    04:00 +1°C° 0.3 mm 5 mps 745 mmHg 95%
    05:00 +1°C° 0.1 mm 5 mps 745 mmHg 94%
    06:00 +1°C° 0.1 mm 5 mps 746 mmHg 94%
    07:00 +1°C° 0.1 mm 5 mps 746 mmHg 94%
    08:00 +1°C° 0 mm 5 mps 746 mmHg 92%
    09:00 +1°C° 0 mm 5 mps 747 mmHg 90%
    10:00 +1°C° 0 mm 5 mps 747 mmHg 88%
    11:00 +1°C° 0 mm 5 mps 747 mmHg 87%
    12:00 +1°C° 0 mm 5 mps 747 mmHg 86%
    13:00 +1°C° 0 mm 5 mps 747 mmHg 85%
    14:00 +1°C° 0 mm 5 mps 747 mmHg 87%
    15:00 +1°C° 0 mm 4 mps 747 mmHg 88%
    16:00 +1°C° 0 mm 4 mps 747 mmHg 89%
    17:00 +1°C° 0 mm 4 mps 747 mmHg 88%
    18:00 +1°C° 0 mm 5 mps 747 mmHg 87%
    19:00 +1°C° 0 mm 5 mps 747 mmHg 86%
    20:00 0°C° 0 mm 5 mps 747 mmHg 85%
    21:00 0°C° 0 mm 5 mps 747 mmHg 85%
    22:00 -1°C° 0 mm 4 mps 746 mmHg 84%
    23:00 -1°C° 0 mm 5 mps 745 mmHg 84%

    13 December, Friday

    Time Temperature Precipitation Wind Pressure Humidity
    00:00 -2°C° 0 mm 5 mps 744 mmHg 85%
    01:00 -3°C° 0 mm 6 mps 743 mmHg 85%
    02:00 -3°C° 0 mm 6 mps 741 mmHg 82%
    03:00 -3°C° 0 mm 7 mps 740 mmHg 80%
    04:00 -4°C° 0 mm 8 mps 738 mmHg 77%
    05:00 -4°C° 0.2 mm 8 mps 737 mmHg 78%
    06:00 -3°C° 0.2 mm 9 mps 736 mmHg 79%
    07:00 -3°C° 0.2 mm 9 mps 735 mmHg 80%
    08:00 -3°C° 0.9 mm 9 mps 734 mmHg 85%
    09:00 -2°C° 0.9 mm 8 mps 734 mmHg 90%
    10:00 -2°C° 0.9 mm 8 mps 733 mmHg 95%
    11:00 -1°C° 0.1 mm 7 mps 733 mmHg 92%
    12:00 +1°C° 0.1 mm 6 mps 733 mmHg 89%
    13:00 +1°C° 0.1 mm 4 mps 733 mmHg 86%
    14:00 +1°C° 0.1 mm 4 mps 733 mmHg 86%
    15:00 0°C° 0.1 mm 4 mps 733 mmHg 86%
    16:00 0°C° 0.1 mm 4 mps 733 mmHg 86%
    17:00 0°C° 0 mm 5 mps 733 mmHg 87%
    18:00 0°C° 0 mm 5 mps 733 mmHg 88%
    19:00 -1°C° 0 mm 6 mps 733 mmHg 89%
    20:00 -1°C° 0.4 mm 7 mps 732 mmHg 91%
    21:00 -1°C° 0.4 mm 8 mps 732 mmHg 92%
    22:00 -1°C° 0.4 mm 9 mps 732 mmHg 94%
    23:00 0°C° 0.6 mm 10 mps 732 mmHg 93%

    14 December, Saturday

    Time Temperature Precipitation Wind Pressure Humidity
    00:00 0°C° 0.6 mm 10 mps 732 mmHg 93%
    01:00 0°C° 0.6 mm 10 mps 732 mmHg 92%
    02:00 0°C° 0.4 mm 10 mps 732 mmHg 89%
    03:00 +1°C° 0.4 mm 10 mps 733 mmHg 85%
    04:00 +1°C° 0.4 mm 10 mps 734 mmHg 82%
    05:00 +1°C° 0 mm 9 mps 734 mmHg 84%
    06:00 0°C° 0 mm 9 mps 735 mmHg 86%
    07:00 0°C° 0 mm 8 mps 736 mmHg 88%
    08:00 0°C° 0.2 mm 8 mps 737 mmHg 87%
    09:00 0°C° 0.2 mm 7 mps 738 mmHg 87%
    10:00 +2°C° 0.2 mm 7 mps 739 mmHg 86%
    11:00 +2°C° 0 mm 7 mps 739 mmHg 83%
    12:00 +2°C° 0 mm 7 mps 739 mmHg 80%
    13:00 +2°C° 0 mm 6 mps 739 mmHg 77%
    14:00 +2°C° 0 mm 6 mps 739 mmHg 80%
    15:00 +1°C° 0 mm 5 mps 740 mmHg 83%
    16:00 +1°C° 0 mm 5 mps 740 mmHg 87%
    17:00 +1°C° 0 mm 4 mps 741 mmHg 87%
    18:00 +1°C° 0 mm 4 mps 742 mmHg 88%
    19:00 +3°C° 0 mm 4 mps 742 mmHg 88%
    20:00 +3°C° 0 mm 4 mps 742 mmHg 88%
    21:00 +2°C° 0 mm 5 mps 743 mmHg 88%
    22:00 +2°C° 0 mm 5 mps 743 mmHg 88%
    23:00 +2°C° 0.2 mm 5 mps 743 mmHg 88%
    Show more